Meath Environmental Platform

Observations for Trim Patrick St

Time AQI Temp °C Hum % Pres Pa CO μg/m³ H₂S μg/m³ NO μg/m³ NO₂ μg/m³ O₃ μg/m³ SO₂ μg/m³ PM1 μg/m³ PM2.5 μg/m³ PM10 μg/m³
Monday 3 August 2026
05:46 1 15.5 81 38,460 0.21 2.89 1.84 24.64 42 0 4.57 8.67 9.54
05:45 1 15.5 81 38,460 0.22 0.62 1.92 21.79 37.12 0 4.57 9.37 10.31
05:44 1 15.5 81 38,460 0.22 1.71 1.96 25.57 33.56 0 5.43 8.68 9.54
05:43 1 15.5 81 38,460 0.22 0 1.87 18.65 41.18 0 6.29 10.07 11.08
05:42 1 15.5 81 38,460 0.22 0 1.93 17.61 41.41 0 5.43 9.37 10.31
05:41 1 15.5 81 38,460 0.21 0 1.96 19.32 40.51 0 4.57 8.68 9.54
05:40 1 15.5 81 38,460 0.22 0 1.95 15.61 42.44 0 6.29 10.07 11.08
05:39 1 15.4 81 38,460 0.21 0 1.92 14.03 44.67 0 5.43 9.37 10.31
05:38 1 15.4 80 38,460 0.21 2.42 1.94 29.42 32.15 0 5.43 7.98 8.78
05:36 1 15.4 81 38,460 0.21 0 1.84 16.94 41.01 0 5.43 9.37 10.3
05:35 1 15.4 81 38,460 0.21 0 1.87 15.27 43.84 0 5.43 7.96 8.76
05:33 1 15.4 80 38,460 0.21 2.7 1.81 36.33 27.58 0 5.43 8.68 9.55
05:32 1 15.4 81 38,460 0.22 0 1.84 18 40.71 0 5.43 8.68 9.54
05:31 1 15.4 81 38,460 0.21 0.15 1.89 20.82 38.89 0 6.29 10.07 11.08
05:30 1 15.4 81 38,460 0.21 0.1 1.9 20.82 36.82 0 6.29 10.07 11.08
05:29 1 15.4 80 38,460 0.21 0 1.95 17.22 42.7 0 6.29 9.38 10.32
05:28 1 15.4 80 38,460 0.21 1.56 1.96 19.66 40.37 0 4.57 7.98 8.78
05:27 1 15.4 80 38,460 0.2 0 1.92 25.1 31.84 0 5.43 8.69 9.56
05:24 1 15.4 80 38,460 0.21 0.75 1.7 19.63 39.72 0 4.57 9.39 10.33
05:23 1 15.4 80 38,460 0.2 0 1.7 21.78 35.21 0 5.43 9.4 10.34